TimeEDT,TemperatureF,Dew PointF,Humidity,Sea Level PressureIn,VisibilityMPH,Wind Direction,Wind SpeedMPH,Gust SpeedMPH,PrecipitationIn,Events,Conditions,WindDirDegrees,DateUTC
12:15 AM,44.6,39.2,81,29.73,10.0,WSW,6.9,-,N/A,,Clear,250,2012-11-01 04:15:00
12:35 AM,44.6,39.2,81,29.73,10.0,WSW,5.8,-,N/A,,Clear,240,2012-11-01 04:35:00
12:55 AM,44.6,39.2,81,29.73,10.0,SW,4.6,-,N/A,,Clear,230,2012-11-01 04:55:00
1:15 AM,44.6,39.2,81,29.73,10.0,WSW,4.6,-,N/A,,Clear,240,2012-11-01 05:15:00
1:35 AM,44.6,39.2,81,29.73,10.0,SW,3.5,-,N/A,,Clear,230,2012-11-01 05:35:00
1:55 AM,44.6,39.2,81,29.73,10.0,SW,4.6,-,N/A,,Clear,230,2012-11-01 05:55:00
2:15 AM,44.6,41.0,87,29.73,10.0,WSW,4.6,-,N/A,,Clear,240,2012-11-01 06:15:00
2:35 AM,44.6,41.0,87,29.73,10.0,WSW,4.6,-,N/A,,Scattered Clouds,250,2012-11-01 06:35:00
2:55 AM,44.6,41.0,87,29.73,10.0,WSW,4.6,-,N/A,,Scattered Clouds,240,2012-11-01 06:55:00
3:15 AM,44.6,41.0,87,29.73,10.0,SSW,3.5,-,N/A,,Mostly Cloudy,210,2012-11-01 07:15:00
3:35 AM,44.6,42.8,93,29.73,10.0,SSW,3.5,-,N/A,,Overcast,210,2012-11-01 07:35:00
3:55 AM,44.6,41.0,87,29.73,10.0,SW,4.6,-,N/A,,Overcast,220,2012-11-01 07:55:00
4:15 AM,44.6,41.0,87,29.72,10.0,SW,4.6,-,N/A,,Overcast,220,2012-11-01 08:15:00
4:35 AM,44.6,41.0,87,29.72,10.0,SW,4.6,-,N/A,,Overcast,220,2012-11-01 08:35:00
4:55 AM,44.6,41.0,87,29.72,10.0,SW,3.5,-,N/A,,Mostly Cloudy,220,2012-11-01 08:55:00
5:15 AM,44.6,41.0,87,29.72,10.0,SSW,3.5,-,N/A,,Scattered Clouds,210,2012-11-01 09:15:00
5:35 AM,42.8,41.0,93,29.73,10.0,Calm,Calm,-,N/A,,Mostly Cloudy,0,2012-11-01 09:35:00
5:55 AM,42.8,41.0,93,29.73,10.0,Calm,Calm,-,N/A,,Scattered Clouds,0,2012-11-01 09:55:00
6:15 AM,42.8,41.0,93,29.73,10.0,SW,3.5,-,N/A,,Scattered Clouds,220,2012-11-01 10:15:00
6:35 AM,42.8,41.0,93,29.73,10.0,Calm,Calm,-,N/A,,Clear,0,2012-11-01 10:35:00
6:55 AM,42.8,41.0,93,29.73,10.0,Calm,Calm,-,N/A,,Clear,0,2012-11-01 10:55:00
7:15 AM,42.8,41.0,93,29.73,10.0,Calm,Calm,-,N/A,,Clear,0,2012-11-01 11:15:00
7:35 AM,42.8,41.0,93,29.74,10.0,SSW,3.5,-,N/A,,Scattered Clouds,210,2012-11-01 11:35:00
7:55 AM,42.8,41.0,93,29.74,10.0,Calm,Calm,-,N/A,,Clear,0,2012-11-01 11:55:00
8:15 AM,42.8,39.2,87,29.75,10.0,SW,3.5,-,N/A,,Clear,220,2012-11-01 12:15:00
8:35 AM,42.8,41.0,93,29.75,10.0,SW,4.6,-,N/A,,Clear,220,2012-11-01 12:35:00
8:55 AM,44.6,41.0,87,29.75,10.0,WSW,8.1,-,N/A,,Clear,240,2012-11-01 12:55:00
9:15 AM,44.6,41.0,87,29.76,10.0,WSW,6.9,-,N/A,,Clear,250,2012-11-01 13:15:00
9:35 AM,46.4,41.0,81,29.76,10.0,WSW,9.2,-,N/A,,Clear,250,2012-11-01 13:35:00
9:55 AM,48.2,41.0,76,29.77,10.0,WSW,6.9,-,N/A,,Clear,240,2012-11-01 13:55:00
10:15 AM,48.2,41.0,76,29.76,10.0,West,9.2,-,N/A,,Clear,260,2012-11-01 14:15:00
10:35 AM,50.0,41.0,71,29.76,10.0,West,9.2,-,N/A,,Clear,260,2012-11-01 14:35:00
10:55 AM,51.8,41.0,67,29.76,10.0,West,10.4,-,N/A,,Scattered Clouds,260,2012-11-01 14:55:00
11:15 AM,53.6,42.8,67,29.76,10.0,WSW,11.5,-,N/A,,Mostly Cloudy,250,2012-11-01 15:15:00
11:35 AM,53.6,39.2,58,29.76,10.0,West,12.7,18.4,N/A,,Mostly Cloudy,270,2012-11-01 15:35:00
11:55 AM,53.6,41.0,62,29.75,10.0,WNW,8.1,-,N/A,,Scattered Clouds,300,2012-11-01 15:55:00
12:15 PM,53.6,41.0,62,29.74,10.0,West,10.4,16.1,N/A,,Scattered Clouds,280,2012-11-01 16:15:00
12:35 PM,55.4,39.2,54,29.74,10.0,WSW,12.7,17.3,N/A,,Clear,250,2012-11-01 16:35:00
12:55 PM,55.4,39.2,54,29.73,10.0,West,12.7,17.3,N/A,,Clear,260,2012-11-01 16:55:00
1:15 PM,55.4,39.2,54,29.72,10.0,West,11.5,16.1,N/A,,Clear,270,2012-11-01 17:15:00
1:35 PM,55.4,39.2,54,29.71,10.0,West,9.2,-,N/A,,Scattered Clouds,260,2012-11-01 17:35:00
1:55 PM,55.4,39.2,54,29.71,10.0,West,8.1,-,N/A,,Mostly Cloudy,280,2012-11-01 17:55:00
2:15 PM,55.4,41.0,58,29.70,10.0,West,9.2,-,N/A,,Scattered Clouds,260,2012-11-01 18:15:00
2:35 PM,55.4,39.2,54,29.70,10.0,West,10.4,-,N/A,,Scattered Clouds,270,2012-11-01 18:35:00
2:55 PM,55.4,39.2,54,29.70,10.0,West,9.2,-,N/A,,Mostly Cloudy,270,2012-11-01 18:55:00
3:15 PM,55.4,41.0,58,29.70,10.0,West,9.2,-,N/A,,Overcast,270,2012-11-01 19:15:00
3:35 PM,55.4,42.8,63,29.70,10.0,WSW,10.4,-,N/A,,Overcast,240,2012-11-01 19:35:00
3:55 PM,55.4,42.8,63,29.71,10.0,West,8.1,-,N/A,,Overcast,270,2012-11-01 19:55:00
4:15 PM,55.4,42.8,63,29.71,10.0,WSW,5.8,-,N/A,,Overcast,250,2012-11-01 20:15:00
4:35 PM,55.4,42.8,63,29.71,10.0,WSW,9.2,-,N/A,,Overcast,250,2012-11-01 20:35:00
4:55 PM,55.4,42.8,63,29.71,10.0,West,6.9,-,N/A,,Overcast,270,2012-11-01 20:55:00
5:15 PM,55.4,42.8,63,29.71,10.0,WSW,8.1,-,N/A,,Overcast,240,2012-11-01 21:15:00
5:35 PM,55.4,42.8,63,29.72,10.0,WSW,8.1,-,N/A,,Overcast,250,2012-11-01 21:35:00
5:55 PM,55.4,42.8,63,29.73,10.0,West,5.8,-,N/A,,Overcast,260,2012-11-01 21:55:00
6:15 PM,53.6,41.0,62,29.73,10.0,West,6.9,-,N/A,,Overcast,270,2012-11-01 22:15:00
6:35 PM,53.6,42.8,67,29.74,10.0,West,5.8,-,N/A,,Overcast,260,2012-11-01 22:35:00
6:55 PM,53.6,42.8,67,29.75,10.0,West,6.9,-,N/A,,Overcast,260,2012-11-01 22:55:00
7:15 PM,51.8,41.0,67,29.76,10.0,West,5.8,-,N/A,,Scattered Clouds,260,2012-11-01 23:15:00
7:35 PM,51.8,41.0,67,29.76,10.0,West,5.8,-,N/A,,Clear,260,2012-11-01 23:35:00
7:55 PM,51.8,41.0,67,29.77,10.0,West,5.8,-,N/A,,Scattered Clouds,270,2012-11-01 23:55:00
8:15 PM,51.8,41.0,67,29.76,10.0,West,4.6,-,N/A,,Clear,270,2012-11-02 00:15:00
8:35 PM,50.0,41.0,71,29.77,10.0,West,4.6,-,N/A,,Clear,260,2012-11-02 00:35:00
8:55 PM,48.2,41.0,76,29.78,10.0,WSW,3.5,-,N/A,,Clear,250,2012-11-02 00:55:00
9:15 PM,48.2,41.0,76,29.78,10.0,SW,3.5,-,N/A,,Clear,230,2012-11-02 01:15:00
9:35 PM,48.2,42.8,82,29.78,10.0,WSW,4.6,-,N/A,,Clear,240,2012-11-02 01:35:00
9:55 PM,48.2,41.0,76,29.79,10.0,West,8.1,-,N/A,,Clear,260,2012-11-02 01:55:00
10:15 PM,48.2,39.2,71,29.79,10.0,West,6.9,-,N/A,,Clear,260,2012-11-02 02:15:00
10:35 PM,48.2,39.2,71,29.80,10.0,West,8.1,-,N/A,,Clear,260,2012-11-02 02:35:00
10:55 PM,48.2,39.2,71,29.80,10.0,West,8.1,-,N/A,,Scattered Clouds,260,2012-11-02 02:55:00
11:15 PM,48.2,39.2,71,29.80,10.0,West,8.1,-,N/A,,Mostly Cloudy,260,2012-11-02 03:15:00
11:35 PM,48.2,39.2,71,29.80,10.0,West,9.2,-,N/A,,Scattered Clouds,260,2012-11-02 03:35:00
11:55 PM,48.2,39.2,71,29.80,10.0,West,6.9,-,N/A,,Clear,270,2012-11-02 03:55:00